GFSGBSN_925_temp_192.txt.gz
Temp
9 9 10 10 10 10 11 12 13 14 14 14 14 15 15 15 14 14 14 14 14 14 14 15 16 15 16 21 23 24 23 23 23 23 25 27 27 28 28 29 30 30 31 31 32 32 31
8 8 9 9 9 9 9 11 11 13 13 13 14 14 15 15 15 14 14 14 14 14 13 15 15 14 16 19 24 22 22 22 23 24 25 26 27 28 27 28 28 29 30 30 30 30 30
8 8 8 9 9 9 9 10 11 10 11 13 14 14 14 15 15 15 14 14 13 13 13 13 14 14 17 20 23 24 23 23 24 25 26 27 27 27 28 27 29 28 27 28 28 29 29
7 8 8 8 8 9 9 9 10 10 10 11 13 14 15 14 14 14 14 13 13 12 12 12 13 14 17 21 21 21 22 22 23 24 25 25 25 25 25 26 26 26 26 26 28 30 31
7 7 7 8 8 8 9 10 9 10 10 10 12 13 14 14 14 14 13 13 12 12 12 12 13 15 18 21 20 22 23 24 24 24 24 24 24 24 24 24 24 25 25 27 28 32 31
7 7 7 7 7 7 8 8 10 9 9 10 11 12 12 14 14 13 13 11 11 11 11 12 15 17 19 20 23 22 23 23 24 25 23 23 23 23 23 24 24 26 27 28 28 30 32
6 7 7 7 7 7 7 7 9 9 9 9 10 11 12 12 13 12 11 10 10 10 12 16 18 19 24 23 24 23 23 24 24 23 21 23 22 22 24 26 26 27 27 27 29 30 29
6 6 6 6 6 6 7 7 7 8 9 10 10 11 12 11 12 12 11 13 15 20 15 14 17 19 20 22 23 23 23 23 23 22 23 24 22 25 27 27 27 26 26 26 28 29 29
6 6 6 6 6 6 6 7 7 8 9 10 10 11 10 11 11 11 12 14 16 17 17 19 16 18 20 22 22 23 23 24 23 23 24 24 26 27 26 27 26 26 26 26 26 27 28
6 6 6 6 6 6 6 6 6 7 8 10 9 10 10 10 10 11 12 14 16 16 15 17 19 18 19 22 21 23 24 24 23 23 24 24 27 27 26 25 26 25 27 26 26 26 24
6 6 6 6 6 6 6 6 5 6 7 8 9 9 9 10 12 11 12 13 15 15 13 20 21 22 21 20 22 21 23 24 23 23 24 24 24 24 24 25 25 24 26 26 25 25 24
5 5 5 5 5 5 5 5 5 5 6 7 8 9 9 10 11 12 13 13 14 12 12 17 19 21 20 20 21 24 22 24 24 23 24 24 25 24 25 26 26 26 25 25 25 23 21
5 5 5 5 5 5 5 5 5 5 5 6 6 9 9 10 12 11 11 11 11 12 15 17 18 19 19 20 20 21 22 22 21 19 20 22 23 24 26 24 25 25 24 21 20 21 21
5 5 5 5 5 5 5 5 5 5 5 6 6 6 9 10 11 11 10 11 12 12 15 21 19 19 19 21 20 20 22 22 22 21 22 20 20 23 25 23 23 23 23 21 20 22 24
5 5 5 5 5 5 5 5 5 5 5 5 5 6 8 10 11 10 11 11 12 14 17 19 19 18 19 21 21 20 21 21 22 21 21 23 22 26 25 24 23 23 22 24 22 22 21
5 5 5 5 4 4 4 4 4 4 4 5 5 6 8 10 10 10 11 10 10 16 19 18 18 20 19 20 20 20 21 21 21 22 23 23 22 24 23 23 23 23 24 21 19 17 18
4 4 4 4 4 4 4 4 4 4 4 4 5 6 9 10 9 11 11 10 9 14 18 17 18 19 20 21 21 21 21 22 22 23 22 21 20 20 21 20 21 20 19 21 20 19 18
4 4 4 4 4 4 4 4 4 4 5 5 6 7 9 9 9 9 10 9 11 13 16 12 17 19 21 21 21 22 21 22 23 24 21 19 17 16 19 20 21 21 19 17 14 14 14
4 4 4 4 4 4 3 3 4 5 7 7 7 7 8 9 9 8 8 8 9 10 10 10 12 16 20 20 18 20 21 17 20 20 19 18 15 13 13 12 17 17 18 17 11 10 14
4 4 4 4 3 3 3 4 5 5 5 7 5 7 6 9 9 8 9 8 7 9 9 10 10 14 16 12 14 14 14 15 18 18 14 17 15 15 15 15 16 15 17 17 12 12 14
4 4 4 4 3 3 3 3 5 5 5 5 4 6 9 8 8 8 10 9 8 7 7 9 9 14 13 9 9 10 11 13 14 11 14 13 12 11 9 13 15 16 16 16 14 13 13
4 4 4 3 3 3 3 4 5 5 5 5 4 6 8 11 7 8 9 8 10 8 7 8 11 11 14 11 12 10 10 11 10 11 11 11 9 9 9 13 14 14 16 17 16 16 15
4 4 4 4 3 3 4 4 5 6 5 6 6 11 12 11 8 9 9 8 11 9 7 11 11 11 9 10 11 11 9 9 9 9 8 8 8 9 9 11 13 12 14 15 16 17 16
4 4 4 3 3 3 3 4 5 8 8 9 10 14 10 9 9 9 10 11 10 12 8 9 10 9 8 8 7 7 7 8 8 8 9 8 9 11 11 12 9 14 17 17 16 16 17
4 4 4 4 3 3 3 4 4 5 8 10 10 11 11 8 10 9 10 9 10 8 7 7 8 8 8 9 7 7 7 7 8 9 11 11 11 10 10 11 13 15 15 15 14 14 16
4 4 4 4 4 3 3 4 4 5 6 7 7 10 11 8 8 8 8 9 7 6 6 5 7 7 8 7 7 7 7 7 7 8 12 12 12 11 11 11 12 14 15 15 15 12 15
4 4 4 4 4 4 3 4 4 5 5 6 6 9 11 7 8 9 8 7 7 7 6 5 5 6 8 7 8 8 8 11 8 8 9 9 10 9 11 11 13 16 16 15 11 12 15
4 4 4 4 4 4 4 4 4 5 5 5 5 7 7 5 5 8 8 6 7 8 7 6 6 7 7 7 8 9 10 11 11 12 10 10 9 9 10 10 10 16 15 13 14 15 15
4 4 4 4 4 3 4 5 5 5 6 6 5 5 6 5 5 6 6 8 9 10 8 8 9 8 8 9 10 11 11 11 11 10 12 11 11 11 11 11 14 14 14 15 14 14 14

GFSGBSN_925_temp_198.txt.gz
Temp
8 8 8 8 8 8 8 8 10 10 11 11 11 11 13 13 14 14 15 15 14 14 15 15 14 15 15 14 16 22 21 23 23 22 23 23 23 23 23 23 24 23 24 24 24 24 25
8 8 8 8 8 7 8 8 9 9 10 10 10 11 11 13 13 14 14 14 15 14 14 14 13 13 14 13 19 22 22 22 23 22 23 23 23 23 23 23 23 24 24 23 24 24 24
7 7 7 7 7 7 7 7 8 9 9 9 10 10 11 12 13 13 14 14 14 14 14 13 13 12 12 15 19 20 20 20 22 22 22 23 23 23 23 23 23 23 23 22 23 24 23
7 7 7 7 7 7 7 7 8 8 8 9 9 10 11 10 11 13 13 14 13 13 13 12 12 11 11 16 19 19 20 20 21 21 22 23 23 23 22 22 22 22 22 21 23 24 24
6 7 7 7 7 7 7 7 7 7 7 8 9 10 10 11 10 11 12 13 13 12 12 11 11 11 12 17 15 19 20 20 21 22 22 23 23 21 22 20 19 20 19 21 22 24 24
6 6 6 6 6 6 7 7 7 7 7 7 8 9 10 10 10 11 11 12 12 11 11 11 12 12 13 16 18 19 19 19 20 21 20 20 19 18 17 18 19 19 19 20 21 24 23
6 6 6 7 6 6 6 6 7 7 7 7 7 8 9 10 10 11 11 10 10 10 10 12 12 14 18 18 19 20 19 19 20 19 18 19 17 17 18 20 21 21 20 20 20 22 23
6 6 6 6 6 6 6 6 7 7 7 7 7 7 8 9 9 10 10 11 13 14 11 13 13 14 17 19 17 19 20 19 18 17 19 18 18 19 20 20 20 20 20 19 20 22 23
6 6 6 6 6 6 6 6 6 6 6 6 6 6 7 8 9 9 10 11 12 14 13 13 13 13 15 16 15 17 20 19 19 18 19 19 19 20 20 20 20 20 20 20 21 22 22
5 6 6 6 6 5 6 6 6 6 6 6 6 6 6 7 9 10 10 11 11 13 11 15 12 13 15 16 16 18 21 20 19 18 19 19 21 20 19 19 20 20 22 22 22 22 20
5 5 5 5 5 5 5 5 5 5 5 5 5 5 6 6 9 10 12 11 10 9 11 14 15 16 16 16 19 17 20 20 19 19 19 19 19 20 20 20 21 21 23 22 22 21 20
5 5 5 5 5 5 5 5 5 5 5 5 5 5 5 6 7 10 11 11 10 10 11 13 16 14 14 15 18 19 19 20 21 20 20 20 21 20 21 22 23 23 23 22 21 19 19
4 4 5 5 5 5 5 5 5 5 5 5 5 5 5 5 7 9 10 10 11 11 11 13 16 15 16 15 16 19 19 18 19 18 18 20 20 21 23 22 22 22 21 17 16 17 18
4 5 5 5 4 5 5 5 5 5 5 5 5 5 5 5 6 6 9 11 11 10 11 16 17 15 15 17 16 19 19 18 19 20 19 18 18 20 21 22 22 21 22 18 17 16 18
5 4 4 5 5 5 5 5 5 4 4 5 5 4 4 5 7 5 7 11 12 11 14 15 17 15 16 17 17 19 19 19 19 20 19 19 19 22 22 23 23 20 20 22 20 17 15
4 4 4 5 4 4 4 4 4 4 4 5 4 4 5 6 6 5 7 9 9 12 15 16 16 16 16 17 17 18 18 19 19 20 21 19 18 21 21 22 22 22 21 18 14 15 16
4 4 4 4 4 4 4 4 4 4 4 5 4 4 6 7 5 5 7 8 8 12 15 16 15 17 17 17 18 17 19 20 20 19 20 19 17 18 20 20 21 19 19 19 17 14 14
4 4 4 4 4 4 4 4 4 4 4 4 4 4 7 6 6 5 7 7 9 11 13 15 16 16 16 17 17 16 18 20 20 20 18 19 16 16 19 16 16 20 19 18 16 12 13
4 4 4 4 4 4 4 4 4 4 5 4 4 4 7 7 5 6 6 7 8 11 13 12 13 15 17 16 16 17 17 18 18 20 19 19 15 16 15 16 15 16 19 19 11 11 12
4 4 4 4 4 4 4 4 4 4 4 3 3 4 4 4 5 6 7 8 8 10 13 14 13 13 16 13 14 14 17 14 14 16 19 19 16 16 17 17 17 15 17 18 17 16 13
4 4 4 4 4 4 4 4 4 4 4 4 2 4 5 4 5 6 7 8 8 9 10 14 13 13 15 12 12 14 16 13 13 12 16 18 16 14 13 14 16 18 17 17 17 18 16
4 4 4 4 4 4 4 4 4 4 4 3 3 4 6 7 6 6 7 7 9 9 9 11 12 13 14 14 13 12 13 13 13 12 12 10 13 11 12 11 12 15 17 16 17 17 18
4 4 4 4 4 4 4 4 4 4 3 1 2 4 5 7 6 6 7 8 8 10 9 12 12 13 13 14 13 11 11 10 11 11 9 11 10 11 11 9 10 11 13 15 16 15 15
4 4 4 4 4 4 4 5 4 4 3 3 2 4 4 6 6 7 8 9 8 10 10 11 12 12 11 9 9 8 7 8 9 9 9 9 9 8 9 9 11 14 14 14 15 14 15
4 4 4 4 4 4 4 4 4 3 4 4 4 5 5 6 6 8 8 8 8 10 9 10 11 11 10 10 7 8 7 8 7 6 8 8 8 8 9 10 10 12 12 12 12 13 14
4 4 5 4 4 4 4 4 4 4 4 4 5 4 6 6 7 9 9 9 9 9 7 8 8 9 9 7 7 8 8 8 8 8 6 6 7 9 8 9 10 11 14 14 14 10 14
4 5 4 4 4 4 4 4 4 5 5 5 5 4 5 6 8 9 9 9 9 10 8 7 6 6 6 7 7 8 8 9 9 8 8 8 7 9 8 9 9 12 14 14 11 10 13
5 4 4 4 4 4 4 4 4 5 5 5 6 4 6 7 7 9 9 10 8 9 8 6 7 5 6 8 8 7 7 7 8 9 9 9 8 8 8 8 9 13 14 13 12 11 11
4 4 4 4 4 4 4 4 4 4 5 6 5 5 7 6 6 7 8 10 11 10 8 6 8 6 6 7 7 6 7 6 8 8 8 8 9 8 9 9 10 12 11 11 11 10 11

GFSGBSN_925_temp_204.txt.gz
Temp
7 7 7 8 8 8 8 8 7 8 8 8 9 9 9 10 10 11 12 13 13 13 13 14 13 13 13 13 15 20 20 19 20 21 20 20 19 20 20 20 21 21 22 22 22 22 21
7 7 7 7 7 7 7 7 7 7 7 8 8 9 9 9 10 11 11 11 12 13 13 13 12 12 12 11 17 19 20 20 20 20 20 19 20 20 21 21 20 22 22 21 21 22 22
6 7 7 7 7 7 7 7 7 7 7 7 7 8 9 9 9 10 10 11 12 12 12 12 12 11 11 13 17 17 18 18 19 19 20 21 22 21 21 21 21 22 21 21 21 22 23
6 6 6 6 7 7 6 6 6 6 6 7 7 7 8 8 9 9 9 10 11 11 12 12 11 10 12 14 16 17 18 17 18 19 19 20 21 20 20 21 20 21 21 20 22 22 23
6 6 6 6 6 6 6 6 6 6 6 6 6 7 7 8 8 9 9 10 10 11 11 11 11 11 12 14 13 16 17 17 18 19 19 20 20 19 20 18 18 18 18 18 20 22 23
6 6 6 6 6 6 6 6 6 6 6 6 6 6 7 7 7 8 9 10 10 10 11 10 11 11 12 12 14 15 16 17 18 19 19 18 17 17 15 16 18 19 17 18 20 23 20
6 5 5 6 6 6 6 6 6 6 6 7 6 6 6 7 7 7 8 9 10 11 11 13 12 13 15 14 16 15 16 16 18 17 16 16 16 16 17 19 19 20 18 18 18 20 21
5 5 5 5 5 6 6 6 6 6 6 6 6 6 6 6 7 7 7 9 12 12 12 13 13 13 14 15 14 16 17 16 16 17 17 16 16 19 19 18 19 19 18 17 19 20 20
5 5 5 5 5 6 6 6 6 6 6 6 6 6 6 6 6 7 7 9 11 11 11 12 12 13 13 13 13 14 17 17 17 17 17 17 19 19 19 18 18 19 18 18 19 20 19
4 5 5 5 5 5 6 6 6 5 5 5 5 6 5 6 6 6 7 9 10 10 11 10 11 12 13 13 13 15 17 17 16 16 17 17 19 18 18 18 18 17 18 19 19 18 19
4 4 5 5 5 5 5 5 5 5 5 5 5 5 5 5 5 5 8 8 9 9 11 13 12 13 13 13 15 15 16 17 17 17 17 17 17 18 17 18 18 18 20 19 19 17 18
4 5 5 5 5 5 5 5 5 5 5 5 5 5 5 5 5 5 6 7 8 10 11 11 12 11 12 12 14 16 16 16 18 17 18 19 18 18 19 19 19 19 19 18 17 16 15
4 4 4 4 4 5 5 5 5 5 5 5 5 5 5 4 4 6 5 6 8 10 10 11 12 12 13 12 12 15 15 15 16 16 15 16 17 18 19 17 18 18 17 15 15 16 16
4 4 4 4 5 5 5 5 4 4 4 5 5 5 5 4 4 5 5 5 7 9 10 11 12 12 12 13 13 14 15 15 16 18 18 16 16 17 17 18 18 18 19 17 17 17 19
4 4 4 4 4 4 4 4 4 4 5 4 4 4 4 4 5 5 4 5 7 10 11 10 13 12 12 13 14 13 14 14 16 17 17 17 17 18 19 19 20 17 18 21 18 16 14
4 4 4 4 4 4 4 4 4 4 5 5 4 4 4 4 4 3 3 4 6 9 8 10 11 14 13 13 14 13 13 15 15 17 19 18 16 19 19 20 20 19 20 18 17 15 16
4 4 4 4 4 4 4 4 4 4 4 4 3 3 5 5 4 3 3 2 5 8 9 7 10 11 14 14 14 13 15 16 16 17 18 19 16 16 18 19 19 19 18 18 18 15 17
4 4 4 4 4 4 4 4 4 4 4 4 2 3 5 4 4 3 3 2 7 7 9 7 7 8 9 14 14 14 15 15 17 17 17 18 17 17 18 19 20 21 19 19 18 13 9
4 4 4 4 4 4 4 4 4 4 4 4 3 3 3 4 4 3 0 2 5 7 8 9 7 8 11 14 13 15 15 17 16 17 17 18 16 16 15 17 16 18 19 19 12 11 15
3 4 4 4 4 4 4 4 4 4 5 4 2 3 3 3 3 3 3 1 3 6 7 10 8 9 7 9 14 14 15 16 17 16 18 18 17 16 16 17 16 16 18 19 17 16 18
3 4 4 3 4 4 4 4 4 4 5 4 2 3 3 3 4 4 4 5 2 5 8 8 7 8 8 7 9 12 15 13 13 16 16 17 15 15 16 18 18 19 18 19 18 18 17
4 4 4 4 4 4 4 4 4 4 5 3 3 3 4 2 4 4 4 4 4 5 6 7 8 9 9 7 8 8 13 15 14 11 15 14 13 14 14 17 16 15 18 18 18 19 18
4 4 4 4 4 4 4 4 4 4 4 3 2 3 4 4 4 4 4 4 5 5 6 7 7 8 9 8 9 10 9 12 13 14 14 12 13 12 14 15 15 13 15 16 17 19 19
4 4 4 4 4 4 4 4 4 5 4 3 1 3 3 4 4 5 6 5 5 5 5 7 8 7 8 10 9 9 8 10 11 10 13 12 13 11 12 13 14 15 16 18 16 18 19
4 4 4 4 5 5 5 5 5 5 5 3 3 3 3 4 4 5 5 5 6 5 6 5 8 9 9 10 9 9 9 10 8 7 9 12 12 10 11 13 11 14 12 15 17 17 18
4 4 5 5 4 4 4 4 4 4 5 4 3 3 3 4 4 5 5 5 5 5 5 5 7 8 9 9 9 9 11 11 9 8 8 10 10 10 9 12 13 13 12 14 16 14 16
4 4 4 4 4 4 4 4 4 4 4 4 4 3 3 3 4 6 5 5 6 5 5 3 4 6 8 8 9 10 11 11 10 10 9 10 10 11 10 11 10 11 12 15 13 14 15
4 4 4 4 4 4 4 4 4 4 4 3 4 4 4 3 4 5 7 7 6 6 6 5 5 4 6 8 9 7 8 8 8 10 10 10 10 10 9 10 12 11 12 13 13 11 12
4 4 5 5 5 5 4 4 4 5 4 4 4 4 4 3 3 5 7 8 9 8 7 6 6 6 7 8 6 7 7 7 8 9 8 11 10 11 12 12 11 11 11 12 10 10 10

GFSGBSN_925_temp_210.txt.gz
Temp
7 7 7 7 7 7 7 7 8 8 8 7 7 7 8 8 9 9 9 10 11 11 12 13 12 13 13 17 19 19 19 18 19 20 22 23 25 26 26 28 28 26 29 29 29 29 29
7 7 7 7 7 6 7 7 7 7 7 7 7 7 7 7 8 9 9 10 10 11 11 12 12 12 14 16 19 18 18 18 20 21 22 23 24 26 26 27 27 28 28 29 29 28 29
6 6 6 6 7 7 6 7 7 7 7 7 7 7 7 7 7 8 9 9 10 10 11 11 12 11 15 17 17 17 16 18 18 20 22 23 23 24 25 25 27 26 26 28 28 27 28
6 6 7 6 6 6 6 6 6 7 7 7 7 7 7 7 7 7 8 8 9 10 10 11 11 11 12 16 17 17 17 17 17 18 19 21 22 23 24 26 25 25 26 26 29 29 28
6 6 6 6 6 6 6 6 6 7 7 7 7 7 7 7 7 7 7 8 9 10 10 10 11 11 13 15 15 16 17 19 19 18 19 21 22 23 24 23 24 25 26 27 28 29 28
6 6 6 6 6 5 5 6 6 6 7 7 7 7 7 6 7 7 7 9 9 10 11 11 11 11 12 15 16 16 17 18 20 20 20 20 22 23 23 24 24 25 25 25 27 29 27
6 5 5 5 5 5 5 6 6 6 6 6 7 7 6 6 6 7 7 10 12 12 11 15 14 14 17 17 16 17 18 18 19 21 20 21 20 22 24 24 25 26 26 26 27 29 26
5 5 5 5 5 5 5 6 6 6 6 6 6 6 6 6 6 7 7 11 12 8 10 15 16 16 17 17 17 18 17 18 18 19 21 22 20 24 25 25 24 23 24 25 26 27 25
5 5 5 5 5 5 5 6 6 6 6 6 6 6 6 6 6 7 8 9 8 8 10 15 16 16 16 16 15 18 18 19 19 19 21 21 23 23 24 24 23 23 23 25 25 26 25
5 5 4 4 4 4 5 5 5 5 5 5 6 6 5 5 6 7 8 7 7 8 10 13 15 16 17 17 15 18 18 19 19 20 21 22 23 23 23 23 23 22 25 24 24 24 23
4 4 4 4 5 5 5 5 5 5 5 5 5 5 5 5 7 8 7 7 8 9 9 15 16 18 18 15 18 18 18 18 18 19 20 21 22 22 22 23 23 23 24 24 24 23 23
4 4 4 4 5 5 5 5 5 5 5 5 5 5 5 5 5 7 6 7 8 8 9 15 16 15 15 15 17 20 18 19 19 18 19 21 24 23 23 24 24 24 23 23 23 23 21
4 4 4 4 4 4 5 5 5 5 5 5 5 5 5 5 7 5 6 8 7 8 13 14 14 15 14 14 14 17 16 15 16 15 13 17 20 23 23 22 23 23 22 21 20 21 21
4 4 4 4 4 4 4 4 5 5 5 5 5 5 5 5 5 5 6 7 6 10 10 13 14 14 13 14 14 14 16 16 16 17 19 18 19 21 23 22 22 22 22 21 19 22 23
4 4 4 4 4 4 5 4 4 5 5 5 5 4 4 5 5 4 6 5 7 9 12 13 13 9 12 14 15 14 14 16 17 18 19 21 21 24 23 22 22 22 20 23 22 23 21
4 4 4 4 4 4 4 4 4 5 5 5 4 5 6 5 4 5 4 6 6 10 11 10 8 10 11 14 13 12 13 15 17 19 21 21 21 23 23 23 22 22 24 19 19 16 17
4 4 4 4 4 4 4 4 4 5 5 4 4 4 6 4 4 5 5 6 7 9 10 9 9 8 10 11 9 14 15 17 17 18 20 20 20 21 23 21 21 21 22 21 21 19 19
4 4 4 4 4 4 4 4 4 4 5 4 3 4 3 4 4 5 5 6 8 9 10 9 10 10 8 9 9 10 10 17 19 18 17 19 19 18 21 24 23 23 21 21 16 16 18
4 4 4 4 4 4 4 4 4 4 4 4 4 4 2 5 5 5 5 5 7 7 9 9 8 10 11 9 8 8 8 10 8 10 17 18 16 15 17 20 21 21 22 22 21 17 17
4 4 4 4 4 4 4 4 4 4 4 4 3 4 3 3 6 6 6 5 5 8 8 9 9 9 9 8 8 6 8 10 9 8 9 9 14 16 17 19 20 17 20 22 21 17 18
4 4 4 4 4 4 4 4 4 4 4 4 3 4 6 4 4 5 7 6 6 5 8 9 8 9 8 7 8 8 9 11 12 11 9 8 12 14 17 19 21 20 20 21 21 20 19
5 4 4 4 4 4 4 4 4 4 4 3 4 4 6 8 8 6 6 5 6 7 7 7 7 9 9 8 9 8 10 11 10 12 9 7 10 14 14 18 19 20 21 21 21 22 22
4 4 4 4 4 4 4 4 4 4 4 3 2 5 5 7 7 7 7 6 7 8 8 9 9 8 8 9 11 11 11 10 10 9 9 8 7 9 12 15 16 15 17 20 21 22 22
4 4 4 4 4 4 4 4 4 4 4 4 4 4 4 5 7 7 8 8 7 8 7 9 9 8 9 10 10 10 9 10 10 10 9 8 9 9 10 12 13 15 19 20 20 21 22
4 4 4 4 4 5 5 5 5 5 5 4 4 4 4 5 7 7 7 7 8 9 8 8 9 10 10 6 6 6 7 7 7 7 9 8 8 9 10 13 15 17 18 17 18 19 21
4 4 4 4 4 5 5 5 5 5 5 4 4 4 4 4 6 7 7 8 7 6 6 7 9 9 7 5 6 6 8 10 11 9 10 11 10 9 10 11 14 19 21 21 19 16 20
4 4 4 4 4 4 4 5 5 5 5 4 4 4 3 3 5 7 7 6 8 7 6 8 7 7 7 6 7 7 8 10 10 11 11 10 9 9 9 10 16 21 20 19 14 17 20
3 3 4 4 4 4 4 4 3 3 4 3 4 3 4 3 4 7 7 6 7 6 6 8 7 6 5 6 7 8 8 10 11 13 13 11 11 11 10 11 13 18 18 17 18 17 20
3 3 3 3 4 4 4 4 4 3 4 4 3 3 3 3 3 5 6 7 8 8 6 7 7 8 8 7 9 10 9 11 11 11 12 11 10 13 10 12 12 17 19 18 14 17 17